timestamp,surface_pressure_avg,surface_temp_avg,battery_voltage,lat,long
2017-12-13 00:00:00+00:00,231.2531,5.58,12.49,47.84626,-54.09684
2017-12-13 00:10:00+00:00,224.0081,5.53,12.49,47.84626,-54.09684
2017-12-13 00:20:00+00:00,214.0347,5.57,12.57,47.84626,-54.09684
2017-12-13 00:30:00+00:00,211.4031,5.5,12.57,47.84626,-54.09684
2017-12-13 00:40:00+00:00,213.8464,5.5,12.57,47.84626,-54.09684
2017-12-13 00:50:00+00:00,213.1698,5.5,12.57,47.84626,-54.09684
2017-12-13 01:00:00+00:00,208.8047,5.5,12.49,47.84626,-54.09684
2017-12-13 01:10:00+00:00,210.7481,5.5,12.49,47.84626,-54.09684
2017-12-13 01:20:00+00:00,216.3164,5.5,12.57,47.84626,-54.09684
2017-12-13 01:30:00+00:00,218.0697,5.5,12.57,47.84626,-54.09684
2017-12-13 01:40:00+00:00,214.6181,5.5,12.57,47.84626,-54.09684
2017-12-13 01:50:00+00:00,216.4181,5.5,12.57,47.84626,-54.09684
2017-12-13 02:00:00+00:00,218.5148,5.5,12.49,47.84626,-54.09684
2017-12-13 02:10:00+00:00,215.4681,5.4,12.49,47.84626,-54.09684
2017-12-13 02:20:00+00:00,214.2581,5.3,12.49,47.84626,-54.09684
2017-12-13 02:30:00+00:00,218.6248,5.2,12.49,47.84626,-54.09684
2017-12-13 02:40:00+00:00,223.7164,5.2,12.57,47.84626,-54.09684
2017-12-13 02:50:00+00:00,224.1031,5.2,12.57,47.84626,-54.09684
2017-12-13 03:00:00+00:00,224.1631,5.2,12.49,47.84626,-54.09684
2017-12-13 03:10:00+00:00,226.9448,5.24,12.49,47.84626,-54.09684
2017-12-13 03:20:00+00:00,234.6931,5.3,12.49,47.84626,-54.09684
2017-12-13 03:30:00+00:00,240.5181,5.3,12.49,47.84626,-54.09684
2017-12-13 03:40:00+00:00,246.4247,5.3,12.57,47.84626,-54.09684
2017-12-13 03:50:00+00:00,248.0131,5.35,12.57,47.84626,-54.09684
2017-12-13 04:00:00+00:00,249.2498,5.32,12.49,47.84626,-54.09684
2017-12-13 04:10:00+00:00,250.843,5.3,12.41,47.84626,-54.09684
2017-12-13 04:20:00+00:00,254.8648,5.32,12.49,47.84626,-54.09684
2017-12-13 04:30:00+00:00,259.2697,5.48,12.49,47.84626,-54.09684
2017-12-13 04:40:00+00:00,267.4664,5.56,12.49,47.84626,-54.09684
2017-12-13 04:50:00+00:00,272.4514,5.53,12.49,47.84626,-54.09684
2017-12-13 05:00:00+00:00,274.5881,5.5,12.49,47.84626,-54.09684
2017-12-13 05:10:00+00:00,281.4747,5.39,12.41,47.84626,-54.09684
2017-12-13 05:20:00+00:00,285.6031,5.3,12.49,47.84626,-54.09684
2017-12-13 05:30:00+00:00,287.093,5.2,12.49,47.84626,-54.09684
2017-12-13 05:40:00+00:00,295.8431,5.32,12.49,47.84626,-54.09684
2017-12-13 05:50:00+00:00,306.8279,5.39,12.49,47.84626,-54.09684
2017-12-13 06:00:00+00:00,312.3113,5.4,12.49,47.84626,-54.09684
2017-12-13 06:10:00+00:00,314.838,5.52,12.41,47.84626,-54.09684
2017-12-13 06:20:00+00:00,316.793,5.66,12.49,47.84626,-54.09684
2017-12-13 06:30:00+00:00,317.3196,5.7,12.49,47.84626,-54.09684
2017-12-13 06:40:00+00:00,320.6647,5.7,12.49,47.84626,-54.09684
2017-12-13 06:50:00+00:00,323.7679,5.74,12.49,47.84626,-54.09684
2017-12-13 07:00:00+00:00,326.908,5.7,12.41,47.84626,-54.09684
2017-12-13 07:10:00+00:00,328.808,5.7,12.41,47.84626,-54.09684
2017-12-13 07:20:00+00:00,337.9463,5.7,12.49,47.84626,-54.09684
2017-12-13 07:30:00+00:00,347.5413,5.7,12.49,47.84626,-54.09684
2017-12-13 07:40:00+00:00,348.1096,5.69,12.49,47.84626,-54.09684
2017-12-13 07:50:00+00:00,348.0979,5.68,12.49,47.84626,-54.09684
2017-12-13 08:00:00+00:00,354.4946,5.7,12.41,47.84626,-54.09684
2017-12-13 08:10:00+00:00,352.7797,5.7,12.41,47.84626,-54.09684
2017-12-13 08:20:00+00:00,348.0779,5.7,12.49,47.84626,-54.09684
2017-12-13 08:30:00+00:00,345.3279,5.7,12.49,47.84626,-54.09684
2017-12-13 08:40:00+00:00,341.7063,5.7,12.49,47.84626,-54.09684
2017-12-13 08:50:00+00:00,328.3329,5.7,12.49,47.84626,-54.09684
2017-12-13 09:00:00+00:00,325.518,5.7,12.41,47.84626,-54.09684
2017-12-13 09:10:00+00:00,332.8213,5.6,12.41,47.84626,-54.09684
2017-12-13 09:20:00+00:00,328.5363,5.53,12.49,47.84626,-54.09684
2017-12-13 09:30:00+00:00,320.878,5.6,12.49,47.84626,-54.09684
2017-12-13 09:40:00+00:00,321.2097,5.6,12.49,47.84626,-54.09684
2017-12-13 09:50:00+00:00,323.0214,5.6,12.49,47.84626,-54.09684
2017-12-13 10:00:00+00:00,315.4479,5.6,12.41,47.84626,-54.09684
2017-12-13 10:10:00+00:00,307.453,5.6,12.41,47.84626,-54.09684
2017-12-13 10:20:00+00:00,302.6497,5.6,12.49,47.84626,-54.09684
2017-12-13 10:30:00+00:00,293.4331,5.6,12.49,47.84626,-54.09684
2017-12-13 10:40:00+00:00,287.888,5.5,12.49,47.84626,-54.09684
2017-12-13 10:50:00+00:00,290.5431,5.42,12.49,47.84626,-54.09684
2017-12-13 11:00:00+00:00,290.363,5.58,12.41,47.84626,-54.09684
2017-12-13 11:10:00+00:00,281.5031,5.6,12.41,47.84626,-54.09684
2017-12-13 11:20:00+00:00,275.8947,5.6,12.49,47.84626,-54.09684
2017-12-13 11:30:00+00:00,274.9747,5.6,12.49,47.84626,-54.09684
2017-12-13 11:40:00+00:00,269.2381,5.6,12.49,47.84626,-54.09684
2017-12-13 11:50:00+00:00,262.5214,5.6,12.49,47.84626,-54.09684
2017-12-13 12:00:00+00:00,255.4898,5.56,12.49,47.84626,-54.09684
2017-12-13 12:10:00+00:00,248.0114,5.67,12.41,47.84626,-54.09684
2017-12-13 12:20:00+00:00,239.708,5.7,12.49,47.84626,-54.09684
2017-12-13 12:30:00+00:00,235.3831,5.69,12.49,47.84626,-54.09684
2017-12-13 12:40:00+00:00,236.3281,5.68,12.49,47.84626,-54.09684
2017-12-13 12:50:00+00:00,234.2765,5.69,12.49,47.84626,-54.09684
2017-12-13 13:00:00+00:00,228.2631,5.6,12.49,47.84626,-54.09684
2017-12-13 13:10:00+00:00,226.4615,5.59,12.41,47.84626,-54.09684
2017-12-13 13:20:00+00:00,227.6514,5.7,12.49,47.84626,-54.09684
2017-12-13 13:30:00+00:00,221.6831,5.7,12.49,47.84626,-54.09684
2017-12-13 13:40:00+00:00,219.2415,5.75,12.49,47.84626,-54.09684
2017-12-13 13:50:00+00:00,222.3448,5.8,12.49,47.84626,-54.09684
2017-12-13 14:00:00+00:00,221.6648,5.8,12.41,47.84626,-54.09684
2017-12-13 14:10:00+00:00,218.5898,5.8,12.41,47.84626,-54.09684
2017-12-13 14:20:00+00:00,221.4297,5.8,12.49,47.84626,-54.09684
2017-12-13 14:30:00+00:00,226.3114,5.8,12.49,47.84626,-54.09684
2017-12-13 14:40:00+00:00,224.3315,5.8,12.49,47.84626,-54.09684
2017-12-13 14:50:00+00:00,221.9665,5.8,12.49,47.84626,-54.09684
2017-12-13 15:00:00+00:00,225.1548,5.8,12.49,47.84626,-54.09684
2017-12-13 15:10:00+00:00,227.9532,5.7,12.41,47.84626,-54.09684
2017-12-13 15:20:00+00:00,224.7397,5.52,12.49,47.84626,-54.09684
2017-12-13 15:30:00+00:00,222.6881,5.57,12.49,47.84626,-54.09684
2017-12-13 15:40:00+00:00,226.563,5.65,12.49,47.84626,-54.09684
2017-12-13 15:50:00+00:00,226.7048,5.6,12.49,47.84626,-54.09684
2017-12-13 16:00:00+00:00,223.9781,5.5,12.49,47.84626,-54.09684
2017-12-13 16:10:00+00:00,227.0881,5.5,12.41,47.84626,-54.09684
2017-12-13 16:20:00+00:00,234.5764,5.5,12.49,47.84626,-54.09684
2017-12-13 16:30:00+00:00,237.6548,5.5,12.49,47.84626,-54.09684
2017-12-13 16:40:00+00:00,242.6697,5.57,12.57,47.84626,-54.09684
2017-12-13 16:50:00+00:00,250.7831,5.6,12.57,47.84626,-54.09684
2017-12-13 17:00:00+00:00,248.5864,5.5,12.49,47.84626,-54.09684
2017-12-13 17:10:00+00:00,248.8981,5.5,12.41,47.84626,-54.09684
2017-12-13 17:20:00+00:00,261.2414,5.57,12.49,47.84626,-54.09684
2017-12-13 17:30:00+00:00,273.8148,5.58,12.49,47.84626,-54.09684
2017-12-13 17:40:00+00:00,278.6597,5.5,12.49,47.84626,-54.09684
2017-12-13 17:50:00+00:00,284.993,5.55,12.49,47.84626,-54.09684
2017-12-13 18:00:00+00:00,285.3264,5.57,12.41,47.84626,-54.09684
2017-12-13 18:10:00+00:00,280.4764,5.54,12.41,47.84626,-54.09684
2017-12-13 18:20:00+00:00,288.6997,5.5,12.49,47.84626,-54.09684
2017-12-13 18:30:00+00:00,308.1213,5.5,12.49,47.84626,-54.09684
2017-12-13 18:40:00+00:00,313.4064,5.5,12.49,47.84626,-54.09684
2017-12-13 18:50:00+00:00,311.3529,5.5,12.49,47.84626,-54.09684
2017-12-13 19:00:00+00:00,317.733,5.5,12.41,47.84626,-54.09684
2017-12-13 19:10:00+00:00,327.6512,5.56,12.41,47.84626,-54.09684
2017-12-13 19:20:00+00:00,327.7663,5.67,12.49,47.84626,-54.09684
2017-12-13 19:30:00+00:00,329.423,5.7,12.49,47.84626,-54.09684
2017-12-13 19:40:00+00:00,333.1696,5.7,12.49,47.84626,-54.09684
2017-12-13 19:50:00+00:00,334.0031,5.7,12.49,47.84626,-54.09684
2017-12-13 20:00:00+00:00,332.568,5.71,12.41,47.84626,-54.09684
2017-12-13 20:10:00+00:00,334.593,5.75,12.41,47.84626,-54.09684
2017-12-13 20:20:00+00:00,337.953,5.76,12.49,47.84626,-54.09684
2017-12-13 20:30:00+00:00,333.4396,5.79,12.49,47.84626,-54.09684
2017-12-13 20:40:00+00:00,329.193,5.8,12.49,47.84626,-54.09684
2017-12-13 20:50:00+00:00,334.5813,5.8,12.49,47.84626,-54.09684
2017-12-13 21:00:00+00:00,332.6797,5.8,12.41,47.84626,-54.09684
2017-12-13 21:10:00+00:00,326.5047,5.8,12.41,47.84626,-54.09684
2017-12-13 21:20:00+00:00,332.4647,5.8,12.49,47.84626,-54.09684
2017-12-13 21:30:00+00:00,334.1097,5.8,12.49,47.84626,-54.09684
2017-12-13 21:40:00+00:00,335.983,5.7,12.49,47.84626,-54.09684
2017-12-13 21:50:00+00:00,328.7163,5.7,12.49,47.84626,-54.09684
2017-12-13 22:00:00+00:00,320.9147,5.6,12.41,47.84626,-54.09684
2017-12-13 22:10:00+00:00,317.0714,5.6,12.41,47.84626,-54.09684
2017-12-13 22:20:00+00:00,324.2746,5.66,12.49,47.84626,-54.09684
2017-12-13 22:30:00+00:00,322.3146,5.6,12.49,47.84626,-54.09684
2017-12-13 22:40:00+00:00,316.9797,5.59,12.49,47.84626,-54.09684
2017-12-13 22:50:00+00:00,321.3996,5.6,12.49,47.84626,-54.09684
2017-12-13 23:00:00+00:00,321.3779,5.6,12.41,47.84626,-54.09684
2017-12-13 23:10:00+00:00,308.1414,5.5,12.41,47.84626,-54.09684
2017-12-13 23:20:00+00:00,297.228,5.54,12.49,47.84626,-54.09684
2017-12-13 23:30:00+00:00,295.9264,5.57,12.49,47.84626,-54.09684
2017-12-13 23:40:00+00:00,287.9797,5.5,12.49,47.84626,-54.09684
2017-12-13 23:50:00+00:00,273.3514,5.5,12.49,47.84626,-54.09684
